Regional Weather Roundup
Issued by NWS

Home | Current Version | Previous Version | Text Only | Print | Product List | Glossary Off
Versions: 1 2 3 4 5 6 7 8 9 10 11 12 13 14 15 16 17 18 19 20 21 22 23 24 25 26 27 28 29 30 31 32 33 34 35 36 37 38 39 40 41 42 43 44 45 46 47 48 49 50

000
ASUS43 KFSD 171002
RWRSD

WEATHER ROUNDUP FOR SOUTH DAKOTA
NATIONAL WEATHER SERVICE SIOUX FALLS SD
400 AM CST SAT FEB 17 2018

NOTE: "FAIR" INDICATES FEW OR NO CLOUDS BELOW 12,000 FEET WITH NO
SIGNIFICANT WEATHER AND/OR OBSTRUCTIONS TO VISIBILITY.


SDZ001>005-009-010-012>017-171100-
NORTHWEST AND NORTH CENTRAL SOUTH DAKOTA

CITY           SKY/WX    TMP DP  RH WIND       PRES   REMARKS
BUFFALO          N/A     26  23  88 NW15      29.75R WCI  14
FAITH            N/A     23  21  92 W12       29.81R WCI  12
MOBRIDGE       MOCLDY    15  11  83 NW6       29.79F WCI   6
$$

SDZ012>016-024>037-041>051-057-063-072>074-171100-
SOUTHWEST AND SOUTH CENTRAL SOUTH DAKOTA

CITY           SKY/WX    TMP DP  RH WIND       PRES   REMARKS
RAPID CTY ARPT MOCLDY    19  12  74 W6        29.82F WCI  11
PIERRE         CLEAR     18  14  84 W7        29.83S WCI   9
CUSTER         PTCLDY    20   8  60 SW10      29.77R WCI   9
ELLSWORTH AFB  CLOUDY    24  14  66 SW9       29.80F WCI  14
PHILIP         CLEAR     16  12  84 W13       29.84F WCI   2
PINE RIDGE     CLEAR     18  16  92 SW6       29.86R WCI  10
SPEARFISH        N/A     30  12  47 W14       29.79R WCI  20
WINNER         FAIR      30  24  78 CALM      29.81S
$$

SDZ004>011-016>023-039-040-171100-
NORTHEAST SOUTH DAKOTA

CITY           SKY/WX    TMP DP  RH WIND       PRES   REMARKS
ABERDEEN       PTCLDY    18  15  88 W5        29.83F WCI  11
WATERTOWN      PTCLDY    20  18  92 CALM      29.78F
BROOKINGS      CLOUDY    26  22  84 SW5       29.83F WCI  20
SISSETON         N/A     26  20  77 W13       29.80S WCI  15
$$

SDZ017-020-022-023-036>040-048>070-171100-
SOUTHEAST SOUTH DAKOTA

CITY           SKY/WX    TMP DP  RH WIND       PRES   REMARKS
SIOUX FALLS    LGT SNOW  25  23  92 S8        29.85F FOG     WCI  16
HURON          CLOUDY    21  19  92 W3        29.83S
CHAMBERLAIN    CLOUDY    29  26  86 NW6       29.83R WCI  23
MITCHELL       CLOUDY    28  27  96 S6        29.83F WCI  22
YANKTON        MIX PCPN  30  19  63 S6        29.86F WCI  24
$$

ABBREVIATIONS USED IN REMARKS
   TC - TEMPERATURE IN CELSIUS
  WCI - WIND CHILL INDEX
   HX - HEAT INDEX
  VSB - VISIBILITY





USA.gov is the U.S. government's official web portal to all federal, state and local government web resources and services.